Theta_e
314 315 316 316 315 317 317 317 318 318 315 315 314 315 315 313 312 312 313 312 309 308 307 307 307 311 313 317 319 319 319 321 324 325 325 324 323 322 323 321 320 318 317 316
314 315 316 317 317 318 317 317 317 317 315 314 314 315 314 313 311 312 312 312 309 307 306 305 307 313 316 317 318 319 320 321 322 323 323 322 321 321 319 318 316 313 313 313
317 318 317 316 317 317 316 317 317 317 317 313 312 314 314 315 315 312 312 312 310 307 305 304 306 314 314 316 318 319 319 320 320 320 320 321 319 318 314 311 309 307 306 305
316 317 317 315 317 316 317 316 316 316 316 316 314 318 318 316 315 311 311 311 309 306 304 304 306 313 314 315 317 318 318 318 319 320 319 318 316 309 307 305 304 303 302 302
317 314 315 316 316 315 316 314 315 316 315 314 315 316 317 316 317 311 309 308 308 306 304 303 305 310 314 313 315 315 316 318 318 317 315 310 307 306 304 302 301 300 299 297
314 313 314 314 314 314 313 314 314 315 315 317 317 318 319 319 317 313 309 307 307 305 303 303 303 308 313 315 316 316 317 316 313 309 306 306 305 303 302 300 298 296 295 295
315 314 314 313 313 312 314 315 318 319 318 319 317 318 319 317 314 313 309 307 306 304 302 301 303 305 308 310 310 309 309 308 306 305 304 303 302 301 298 296 295 295 295 294
317 319 314 312 314 316 313 315 318 320 322 320 312 315 316 309 308 311 310 307 305 303 302 301 302 304 305 306 306 305 305 305 304 302 301 300 299 298 297 296 295 295 294 294
318 320 314 312 313 315 314 315 315 318 307 313 317 314 313 308 307 307 307 305 305 302 301 300 301 302 303 303 303 303 302 302 301 301 300 298 297 297 296 295 295 294 294 293
318 322 313 307 311 312 314 314 316 316 321 322 319 317 317 310 308 305 306 305 304 302 300 300 300 301 301 301 301 300 300 300 300 299 297 297 296 295 295 295 294 293 292 292
316 318 311 309 310 314 311 313 314 317 316 323 319 320 315 316 310 306 306 305 304 302 300 300 300 300 300 300 299 299 298 298 297 296 296 296 296 295 294 294 293 292 291 290
315 318 317 312 311 311 313 315 315 319 319 316 318 321 310 309 309 307 307 305 304 302 300 300 300 299 299 298 298 298 297 296 295 295 295 295 295 294 293 293 292 290 290 290
316 317 321 320 313 309 311 312 314 316 314 317 317 319 306 307 309 307 306 305 304 302 300 299 299 298 299 298 297 296 296 295 295 295 295 295 294 294 293 292 291 290 289 289
316 314 317 322 320 312 310 311 312 314 317 317 318 318 310 308 308 307 306 305 304 303 301 299 299 299 299 298 297 297 296 295 295 295 295 295 294 293 292 291 290 289 289 289
315 316 315 316 317 316 312 311 312 313 314 316 317 316 316 310 307 308 308 306 304 303 301 299 299 298 298 298 297 297 296 296 295 295 294 294 293 292 291 290 289 289 289 289
312 314 314 316 314 315 317 316 313 311 312 314 314 315 314 315 310 307 308 307 304 303 302 301 299 299 299 299 298 297 297 296 296 295 295 294 293 291 291 290 289 289 289 288
310 311 313 317 313 314 317 316 317 316 312 313 313 313 307 309 307 307 307 306 305 304 303 302 301 301 300 300 299 298 297 297 297 296 296 294 293 291 290 290 289 289 288 288
307 309 312 316 314 319 314 307 314 316 316 314 311 311 306 309 309 309 308 307 306 305 303 303 302 301 300 299 298 298 297 297 297 297 296 294 293 291 290 289 289 288 288 288
306 308 313 314 315 312 311 303 306 311 314 312 313 313 304 306 307 307 307 306 306 305 305 308 306 303 300 299 298 298 297 297 297 297 297 295 293 291 290 289 288 288 288 288
302 302 310 311 315 315 308 299 303 306 310 306 308 308 301 305 310 309 310 309 309 311 311 310 303 302 300 299 298 298 298 298 298 298 297 295 293 291 290 289 288 288 288 288
301 303 307 311 312 311 307 298 302 307 309 301 306 304 301 306 307 309 310 311 311 309 306 302 302 301 300 299 299 297 297 297 297 295 294 294 293 292 290 288 288 288 288 288
305 306 305 307 311 312 296 298 306 300 297 300 304 303 302 305 308 308 306 305 304 303 301 301 300 299 298 297 296 295 293 293 293 293 294 293 292 290 289 289 289 289 288 288
308 308 309 308 308 294 295 295 296 296 296 298 303 302 302 302 301 301 300 300 299 298 297 297 298 295 293 292 292 292 292 292 292 293 292 291 291 290 289 289 289 288 288 287
298 295 300 301 298 296 294 299 300 300 297 295 295 299 302 301 299 298 297 296 294 293 292 292 292 292 292 292 291 291 291 291 290 290 290 290 290 289 289 289 289 288 287 287
296 295 297 295 294 294 296 298 301 303 302 299 296 296 298 299 296 295 295 293 292 292 292 292 292 292 291 291 291 291 290 290 290 290 290 289 289 289 289 288 288 287 287 285
292 295 298 300 296 299 300 301 302 302 302 297 294 294 294 294 294 294 293 292 292 292 292 292 291 291 291 291 291 290 290 290 290 289 289 289 289 288 288 287 286 286 285 284
Wind_Speed
9 4 9 14 12 12 9 9 7 9 4 5 10 12 11 23 22 21 24 23 20 16 19 14 12 12 12 11 13 15 17 19 20 20 21 20 17 15 15 12 10 7 5 5
2 10 14 8 10 8 9 11 11 8 6 4 8 12 11 14 22 33 28 25 22 21 17 14 14 15 15 15 17 19 22 25 24 23 23 20 18 17 14 12 11 10 9 8
10 4 14 12 7 4 9 10 8 8 4 6 6 10 14 12 24 24 26 25 24 26 19 17 19 19 18 19 21 23 25 25 23 20 19 20 19 17 16 17 15 14 12 10
12 17 11 6 12 9 9 9 11 10 4 5 7 8 4 8 13 13 23 21 22 22 20 21 22 23 24 25 25 25 24 21 19 19 20 20 19 22 20 18 15 13 11 9
6 8 9 13 8 9 5 4 3 3 6 6 7 9 4 10 18 17 21 27 25 26 27 26 25 26 28 26 26 25 24 23 23 22 22 22 23 20 18 16 14 11 9 8
8 3 3 5 2 5 8 5 2 1 1 7 11 12 6 12 16 7 17 28 30 30 29 26 28 28 29 29 28 27 26 25 24 23 22 20 19 19 17 15 11 11 9 7
7 12 4 4 5 5 6 6 2 3 3 7 4 10 18 3 2 8 19 30 34 35 32 32 32 31 31 31 30 28 27 27 25 23 22 21 19 18 16 14 10 8 6 5
9 5 20 12 13 8 11 9 5 7 5 4 2 8 6 3 5 5 30 34 35 37 36 37 35 35 35 34 32 31 29 28 26 25 23 21 20 18 15 11 9 7 5 3
5 7 4 10 6 9 6 9 11 4 2 2 6 8 7 5 3 1 21 31 34 38 38 39 37 37 35 34 33 32 31 29 28 26 24 23 20 16 13 10 9 7 6 5
4 4 3 2 6 4 2 4 3 3 4 6 6 10 11 7 11 8 15 29 32 35 37 39 40 39 37 36 34 31 30 29 28 27 25 22 20 17 14 11 10 9 8 7
4 4 1 4 6 11 4 4 5 5 4 3 4 8 3 17 14 18 17 31 36 39 42 44 43 40 39 38 36 34 32 31 29 27 25 22 20 17 15 13 13 12 11 8
5 2 5 9 8 10 10 9 13 5 7 8 6 17 4 6 11 20 22 30 33 38 41 44 45 44 42 40 38 37 34 32 30 28 26 23 21 19 17 16 15 13 11 7
9 4 4 3 1 2 7 12 16 19 2 17 5 12 4 6 6 18 23 29 33 36 38 42 44 45 44 43 40 38 36 33 31 28 26 24 23 21 20 18 16 14 11 8
12 5 9 14 4 6 6 14 18 16 11 19 20 23 3 3 5 10 22 29 33 38 42 43 46 48 48 46 43 40 38 35 33 30 28 26 25 24 22 19 17 15 13 11
10 9 11 23 21 11 6 6 20 23 33 14 30 22 23 10 12 20 25 26 30 36 39 42 44 48 48 46 44 42 40 37 34 33 30 28 26 25 23 22 20 17 16 14
5 6 11 23 22 16 19 13 19 26 29 27 30 27 4 16 24 17 24 29 30 32 37 42 42 44 47 49 48 46 42 39 36 33 31 30 29 27 26 24 22 20 19 17
10 7 6 16 7 11 12 30 25 22 26 22 25 38 5 4 9 18 23 27 30 32 37 39 43 45 47 50 50 48 43 39 35 33 32 32 31 29 29 27 25 23 21 19
6 9 4 6 4 10 6 2 24 26 29 26 27 21 6 10 20 27 30 31 31 31 31 33 34 37 42 44 44 44 42 37 34 33 32 32 31 31 29 29 27 25 23 22
7 8 5 5 7 6 8 4 7 9 22 20 24 22 9 16 14 11 22 25 24 27 22 17 26 37 39 40 38 39 35 36 35 32 30 31 31 31 31 30 28 26 25 24
5 0 6 4 5 7 3 5 1 6 12 11 19 15 10 17 7 9 26 22 21 22 25 26 28 33 35 33 33 33 36 36 33 30 28 28 29 29 28 28 28 26 26 25
4 3 10 9 5 5 4 5 3 6 7 5 6 14 21 10 8 12 19 22 24 25 26 25 26 28 26 25 26 29 30 30 24 22 22 23 24 25 25 26 27 27 28 29
6 8 4 4 5 8 6 3 8 3 6 6 2 11 15 5 13 9 18 24 25 23 23 22 22 21 20 19 19 20 18 16 15 16 17 18 20 22 23 24 26 28 30 31
5 7 4 6 4 2 4 1 1 3 2 3 1 7 16 13 13 16 19 20 20 20 20 19 18 18 17 15 13 13 13 14 14 15 16 17 19 21 22 24 26 29 31 32
3 3 2 3 1 3 7 3 5 1 1 4 2 4 10 13 13 17 20 22 22 22 21 20 17 14 11 10 12 12 12 13 14 15 17 19 20 22 24 26 28 30 32 33
2 5 4 1 2 3 12 11 8 2 4 6 5 2 7 11 14 16 22 23 22 21 18 15 13 10 9 12 14 15 16 17 18 19 20 22 24 25 27 28 29 30 31 31
6 5 4 3 8 5 7 17 16 16 15 8 6 5 7 9 15 18 21 21 20 18 16 15 14 11 12 14 18 19 19 21 22 24 24 25 25 26 27 28 28 29 29 29
Wind_Direction
197 204 209 213 211 243 279 298 283 291 133 185 228 246 235 200 212 217 218 208 211 212 225 236 216 205 193 170 158 153 152 156 164 167 170 173 175 175 174 159 152 155 157 149
116 230 235 236 242 230 242 256 264 283 147 182 265 262 262 195 209 211 211 207 202 199 221 212 197 191 175 171 160 159 159 160 158 168 173 174 174 169 162 161 160 150 142 135
203 191 215 226 245 226 246 241 253 246 256 211 273 268 246 252 224 208 214 214 205 205 211 199 191 185 175 174 168 166 165 166 169 172 174 173 167 165 163 151 143 133 128 122
233 238 254 222 223 183 243 223 237 253 273 248 148 281 258 259 234 194 201 200 194 193 202 201 188 181 179 177 175 176 174 174 176 176 173 174 172 157 146 143 137 132 127 122
212 179 208 208 200 183 218 56 353 205 257 288 269 284 240 214 249 212 200 195 196 191 194 192 187 185 182 181 181 180 182 185 179 175 175 165 159 156 148 144 142 136 133 123
245 82 226 199 133 209 121 92 91 90 228 255 212 219 249 226 232 210 192 188 190 187 188 189 188 186 182 183 184 183 182 178 174 168 165 166 165 160 156 153 154 147 139 128
220 228 190 148 103 5 159 137 228 264 199 240 162 220 241 287 126 195 184 184 187 185 187 188 188 181 179 178 176 174 172 171 171 171 167 165 165 164 163 159 156 150 141 123
194 242 188 178 206 174 187 185 168 227 215 281 329 239 247 329 43 220 184 178 181 183 186 192 186 181 179 177 176 176 177 178 175 172 170 171 174 175 173 169 165 161 155 150
202 233 66 153 197 190 182 217 228 339 109 349 220 261 277 181 209 131 158 171 178 179 185 191 185 184 181 180 180 181 181 181 179 178 181 182 181 182 180 176 175 179 185 195
243 244 9 75 80 327 179 170 125 150 224 233 261 251 239 232 217 201 180 180 180 179 187 194 190 187 184 185 185 184 186 187 186 187 187 185 183 185 187 187 189 197 203 202
189 174 167 109 195 178 145 215 219 181 189 228 303 256 260 226 196 192 194 185 183 182 188 195 194 191 191 190 190 190 192 193 191 189 189 191 192 192 194 198 204 205 201 200
195 33 220 203 201 212 206 191 198 190 224 229 242 264 18 348 185 181 189 188 187 187 190 197 197 195 195 195 195 196 196 196 196 195 195 196 199 201 203 208 206 203 204 205
158 186 232 261 82 57 210 219 214 222 109 236 171 261 343 1 136 180 179 184 185 186 190 196 198 200 199 200 200 200 201 200 200 200 202 203 205 207 209 210 208 207 211 215
131 172 214 228 148 128 192 205 214 208 221 239 227 248 259 249 232 182 188 187 185 188 190 196 201 204 204 205 204 204 205 204 204 205 207 209 214 213 214 214 213 216 219 228
156 219 211 247 258 276 200 196 212 209 227 213 246 234 241 218 203 210 197 186 186 189 193 196 200 207 208 209 208 209 210 208 208 210 210 215 217 216 218 218 218 221 228 236
176 232 215 254 248 249 259 226 224 226 230 234 252 257 195 253 210 176 186 185 191 193 195 200 202 207 212 215 214 213 212 212 213 213 217 220 220 220 222 223 224 228 233 242
171 192 192 249 203 238 257 238 231 228 234 228 239 247 141 134 155 182 188 188 194 199 199 200 208 214 217 219 218 215 215 215 214 218 221 224 225 225 226 227 229 234 239 248
168 194 205 250 116 223 246 24 216 222 238 232 245 249 168 225 216 206 198 200 205 208 208 208 213 218 224 223 222 220 217 217 218 222 225 227 229 228 229 232 234 238 246 256
183 181 222 219 219 312 304 193 150 169 246 233 241 252 174 158 168 206 183 201 203 209 212 236 241 227 222 223 224 222 218 221 222 227 231 231 230 231 232 234 237 243 252 262
147 335 207 174 217 210 226 261 311 99 273 201 210 218 153 143 194 214 196 208 218 241 249 251 230 221 224 226 225 222 219 223 229 234 237 235 232 234 236 239 242 250 258 264
146 175 222 228 236 276 212 191 180 125 264 305 263 191 163 193 214 186 200 213 223 227 225 216 214 213 216 217 218 217 220 226 231 234 236 235 232 235 239 243 247 254 259 261
162 175 189 196 225 241 167 88 170 250 331 300 215 183 178 167 181 191 195 198 198 193 184 187 189 191 191 193 197 203 211 218 222 225 225 223 226 232 237 242 250 255 258 260
201 192 193 195 209 306 189 268 166 36 341 358 185 188 199 178 167 176 179 180 178 177 169 165 171 171 174 182 196 210 212 214 214 215 219 225 232 238 243 249 257 259 260 261
239 169 177 132 156 270 225 237 186 201 106 32 9 200 200 200 180 179 174 168 164 161 158 158 164 171 182 198 211 213 215 216 220 226 232 238 243 250 255 259 261 261 262 263
174 139 136 360 298 288 240 243 224 204 258 300 309 245 199 193 181 177 169 168 167 167 168 171 176 181 193 208 217 215 221 224 228 234 241 247 252 258 262 264 264 265 266 266
185 163 176 209 187 181 224 222 215 224 234 258 263 226 187 180 171 168 171 174 177 179 180 183 190 201 214 223 223 226 232 237 241 246 250 254 258 261 264 265 264 265 267 266